カタログに戻る

TITAN 34B R/B

運用中HEO
NORAD 12446·ROCKET BODY·🇺🇸 United States

打ち上げ Apr 24, 1981 から Vandenberg Space Force Base

Loading…

次のパス (今後24時間)

TLE

最新Source: Space-Track

元期: Sep 14, 2026, 22:17 UTC

1 12446U 81038B   26257.92848637  .00002615  00000-0  12419-2 0  9999
2 12446  63.2175 233.2322 5528630 291.6334  19.6548  4.69572988100223

AllMySatでTITAN 34B R/Bをリアルタイム追跡

Download on the App Store